Location: Cappy
(49.9254°N, 2.7577°E)
Time: 05:48:22
(UTC+00:00)

Daily predictions for brighter satellites

Satellite Brightness Start Highest point End
(mag) Time Altitude Azimuth Time Altitude Azimuth Time Altitude Azimuth
SL-16 R/B 3.5 00:02:15 19° SE 00:04:59 28° ESE 00:09:42 10° NE
GP-B 3.2 00:03:06 10° N 00:07:33 70° E 00:09:41 30° SSE
Aureole 3 4.1 00:04:36 10° N 00:07:45 38° ENE 00:09:43 21° SE
EO 1 Del DPAF 3.7 00:05:10 10° NNE 00:08:47 45° E 00:10:03 32° SSE
Helios 1A 4.3 00:05:56 15° SE 00:08:58 35° ENE 00:12:47 10° N
Cosmos 1812 Rocket 3.8 00:07:39 10° N 00:11:59 62° ENE 00:14:18 26° SSE
Cosmos 2237 Rocket 2.2 00:08:48 26° SSW 00:12:01 78° ESE 00:17:40 10° NNE
Cosmos 1354 Rocket 4.4 00:11:02 10° NNW 00:16:13 52° WSW 00:18:48 28° SSW
Cosmos 1777 Rocket 4.0 00:12:29 10° NNW 00:17:48 87° ENE 00:21:16 22° SSE
Cosmos-2242 3.9 00:13:57 10° N 00:18:11 44° ENE 00:21:03 19° SE
Cosmos 2369 Rocket 3.9 00:17:40 10° NNW 00:22:50 33° NE 00:27:57 10° ESE
FALCON 9 DEB 2.8 00:24:47 50° SSW 00:25:19 61° SSE 00:28:25 10° ENE
ALOS 2 4.5 00:24:01 15° WSW 00:25:44 18° W 00:28:48 10° NW
COSMOS 2428 3.8 00:20:32 10° WSW 00:25:56 40° NW 00:31:22 10° NNE
CZ-2D R/B 3.9 00:22:16 10° NE 00:26:15 22° E 00:29:56 11° SE
Cosmos 1455 4.0 00:24:07 10° NW 00:26:57 20° W 00:28:14 17° WSW
SL-4 R/B 2.9 00:27:43 26° SE 00:27:43 26° SE 00:30:45 10° E
Resurs 1-4 Rocket 3.8 00:23:50 10° NE 00:28:04 24° E 00:31:49 12° SE
USA 267 4.3 00:27:12 21° SSW 00:29:01 24° SW 00:34:09 10° WNW
Lacrosse 5 rocket 2.1 00:27:02 10° W 00:30:30 44° NNW 00:33:58 10° NE
Cosmos 2297 3.8 00:30:18 10° NNW 00:35:58 77° ENE 00:41:08 12° SE
PSLV R/B 3.8 00:32:21 10° N 00:36:35 64° WNW 00:38:49 27° SW
Elektron 1 3.7 00:34:30 10° NW 00:37:29 60° SW 00:38:22 38° SSE
Cosmos 2278 Rocket 3.2 00:36:36 10° NW 00:41:25 30° WSW 00:43:47 22° SW
Cosmos 1825 Rocket 4.2 00:42:36 23° SSE 00:45:08 50° E 00:49:27 10° NNE
NOSS 0 Rocket 4.5 00:43:04 15° SW 00:48:14 55° NW 00:54:23 10° NNE
SJ 16-02 1.3 00:43:59 10° NNW 00:48:24 85° ENE 00:51:20 21° SSE
FALCON 9 DEB 2.8 00:49:13 27° WSW 00:50:46 89° NNW 00:53:54 10° ENE
ADEOS II 4.2 00:48:10 10° NE 00:51:44 18° E 00:55:16 10° SE
FALCON 9 DEB 2.9 00:50:33 21° WSW 00:52:28 76° NNW 00:55:34 10° ENE
Cosmos 1634 Rocket 4.1 00:50:14 10° NNW 00:56:30 70° W 01:00:50 21° S
GENESIS II 4.5 00:54:20 23° SW 00:56:41 65° NW 01:00:35 10° NE
MOZ.5/SAFIR/RUBIN 5/SL-8 3.8 00:56:36 20° SSE 00:59:54 88° ENE 01:04:41 10° NNW
FALCON 9 DEB 3.0 00:58:18 18° WSW 01:00:29 72° NNW 01:03:36 10° ENE
CZ-4 R/B 3.8 00:56:48 10° NNE 01:01:29 82° ESE 01:04:16 24° S
Cosmos 2279 Rocket 4.0 00:55:58 10° N 01:02:16 86° E 01:07:15 17° S
Cosmos 1953 Rocket 4.0 01:03:15 21° SSE 01:05:59 53° E 01:10:16 10° NNE
Meteor 1-4 Rocket 4.1 01:05:37 10° NW 01:08:20 21° W 01:09:16 19° WSW
FALCON 9 DEB 4.1 01:09:18 10° W 01:12:38 48° N 01:15:57 10° ENE
USA 229 DEB 4.4 01:09:31 18° S 01:13:45 38° ESE 01:19:57 10° NE
USA 229 4.4 01:09:35 18° S 01:13:49 38° ESE 01:20:00 10° NE
BREEZE-M DEB (TANK) 1.5 01:10:29 10° WSW 01:14:21 74° S 01:16:34 10° E
In-Cosmos 22 Rocket 4.3 01:10:34 20° S 01:14:33 77° E 01:20:05 10° NNE
ATLAS CENTAUR R/B 4.1 01:12:05 13° SW 01:17:54 89° NNW 01:35:36 10° ENE
Cosmos 1758 Rocket 4.0 01:19:49 22° SW 01:22:28 51° WNW 01:26:49 10° N
Cosmos 1892 2.7 01:20:42 25° SSW 01:22:52 77° W 01:26:46 10° N
Cosmos 1356 3.4 01:21:20 26° S 01:23:07 71° E 01:26:31 10° NNE
Cosmos 1842 Rocket 4.4 01:19:08 10° N 01:23:21 47° ENE 01:27:32 10° SSE
Cosmos 1408 2.5 01:21:36 25° S 01:23:36 89° E 01:27:18 10° N
NOSS 3-1 (C) 3.4 01:22:02 21° SSW 01:25:43 62° SE 01:31:58 10° NE
X-37B 2.7 01:28:10 15° SSE 01:28:10 15° SSE 01:29:48 10° ESE
SL-16 R/B 2.5 01:22:25 10° SSE 01:28:33 87° WSW 01:34:47 10° NNW
Cosmos 2098 Rocket 4.4 01:23:20 11° SSE 01:29:00 49° E 01:33:51 10° NNE
NOSS 2-3 (E) 3.9 01:30:35 21° SSW 01:33:09 54° SE 01:37:54 10° NE
NOSS 3-1 (A) 4.0 01:29:33 17° S 01:33:19 43° ESE 01:39:11 10° NE
Cosmos 468 Rocket 4.4 01:30:05 17° S 01:33:54 54° ESE 01:38:59 10° NNE
USA 215 4.3 01:29:37 10° ENE 01:35:50 48° N 01:42:04 10° WNW
ATLAS 3B R/B 4.3 01:32:38 10° W 01:38:31 31° NNW 01:44:37 10° NE
Cosmos 1943 Rocket 2.4 01:34:28 10° NW 01:39:44 48° WSW 01:44:18 14° S
Nadezhda 4 Rocket 4.1 01:35:59 14° S 01:41:25 72° E 01:47:32 10° NNE
NPP 3.8 01:38:35 10° NNE 01:44:00 74° ESE 01:48:33 15° S
Helios 1A 4.2 01:42:33 18° SW 01:44:34 27° W 01:48:08 10° NW
Cosmos 405 Rocket 2.5 01:43:20 20° SSW 01:45:49 86° WNW 01:49:31 10° NNE
Cosmos 2058 3.0 01:43:57 17° S 01:47:05 74° E 01:51:12 10° NNE
SL-16 R/B 2.6 01:44:07 15° SW 01:48:44 58° WNW 01:54:22 10° NNE
Cosmos 1242 Rocket 3.0 01:50:34 10° N 01:54:06 60° ENE 01:57:40 10° SSE
Meteor 1-29 3.6 01:52:27 10° NNE 01:55:49 48° E 01:58:43 13° S
SeaSat 1 3.8 01:51:39 10° NE 01:56:03 32° ESE 02:00:25 10° S
Cosmos 2237 Rocket 3.9 01:52:07 10° W 01:56:43 25° NW 02:01:21 10° NNE
ARGOS Delta rocket 4.3 01:51:33 10° N 01:56:58 69° WNW 02:01:35 15° SSW
Cosmos 1763 Rocket 3.5 01:54:55 16° SSW 01:59:01 84° ESE 02:04:10 10° NNE
Helios 1B rocket 2.4 01:56:41 10° NNE 02:00:48 77° WNW 02:04:05 15° SSW
FALCON 9 DEB 3.8 01:58:03 10° W 02:01:07 49° N 02:04:11 10° ENE
NOSS 8 (F) 4.1 01:59:51 19° SW 02:02:02 78° SE 02:05:00 10° NE
Cosmos 921 Rocket 4.3 01:58:35 10° SSE 02:02:23 33° ESE 02:06:11 10° NE
DELTA 2 DEB (DPAF) 4.4 01:58:26 10° SSE 02:02:52 72° ENE 02:07:20 10° N
USA 281 3.4 01:56:20 10° SE 02:02:53 78° ENE 02:09:29 10° NNW
IRS-1D 4.1 02:00:08 10° NNE 02:05:15 54° E 02:10:14 10° S
CZ-2D R/B 2.3 02:01:35 10° N 02:06:45 62° WNW 02:11:15 14° SSW
Cosmos 1825 2.5 02:04:08 16° SSW 02:06:54 50° WNW 02:10:36 10° N
SL-4 R/B 1.6 02:03:15 10° WSW 02:06:56 88° SSE 02:10:27 10° ENE
Cosmos 2263 4.2 02:01:16 10° NNW 02:06:59 73° WSW 02:12:36 10° SSE
Cosmos 2369 Rocket 2.4 02:01:34 10° NW 02:07:10 56° WSW 02:12:44 10° S
Resurs 1-4 Rocket 2.4 02:03:02 10° N 02:08:16 59° WNW 02:12:54 13° SW
Lacrosse 5 rocket 3.3 02:07:09 10° WNW 02:10:13 26° N 02:13:19 10° ENE
SL-19 R/B 4.1 02:06:07 10° NNE 02:11:22 87° WNW 02:16:23 12° SSW
NOSS 2-3 (D) 3.7 02:09:56 14° SW 02:13:33 82° NW 02:18:35 10° NE
Cosmos 1932 4.4 02:08:37 10° NW 02:14:51 75° SW 02:21:02 10° SSE
Cosmos 1092 Rocket 4.1 02:09:49 10° S 02:15:56 78° E 02:22:06 10° NNE
Cosmos 1437 Rocket 3.3 02:14:05 10° NNW 02:17:48 40° W 02:21:07 12° SSW
Cosmos 1633 2.9 02:14:22 10° S 02:17:49 60° E 02:21:19 10° NNE
ADEOS Rocket 3.4 02:11:56 10° S 02:19:27 73° WSW 02:26:20 10° NNW
Cosmos 1076 Rocket 3.5 02:16:09 10° S 02:20:23 80° E 02:24:40 10° NNE
Cosmos 2221 3.1 02:20:42 10° NNW 02:24:46 41° W 02:28:47 10° SSW
Aureole 3 Rocket 2.7 02:22:09 10° NNW 02:25:28 63° W 02:29:43 10° S
Lacrosse 4 Rocket 2.8 02:21:56 10° NNW 02:25:54 42° NE 02:29:47 10° ESE
Meteor 2-15 4.5 02:19:50 10° NNW 02:25:58 70° W 02:32:02 10° S
SJ 16-02 3.4 02:24:37 10° WNW 02:26:16 12° W 02:27:54 10° WSW
FALCON 9 DEB 4.0 02:23:38 10° WNW 02:26:40 45° N 02:29:41 10° ENE
NOSS 8 (H) 4.1 02:24:30 13° SW 02:27:12 80° SE 02:30:09 10° NE
AQUA 4.1 02:23:07 10° N 02:27:48 56° WNW 02:32:22 10° SSW
FALCON 9 DEB 4.0 02:25:20 10° WNW 02:28:19 44° N 02:31:18 10° ENE
NOSS 2-3 (C) 4.0 02:26:44 10° WSW 02:30:56 61° NW 02:36:03 10° NE
Cosmos 1898 Rocket 4.1 02:27:02 10° NW 02:31:49 36° WSW 02:36:33 10° SSW
ADEOS II 2.2 02:26:44 10° NNE 02:32:00 76° WNW 02:37:15 10° SSW
Cosmos 1656 Rocket 3.9 02:27:14 10° NW 02:32:47 55° WSW 02:38:17 10° S
Cosmos 1606 3.1 02:30:17 10° NNW 02:34:01 47° W 02:37:42 10° SSW
Cosmos 2151 3.3 02:30:34 10° S 02:34:44 65° E 02:38:56 10° NNE
FALCON 9 DEB 4.0 02:33:21 10° WNW 02:36:22 44° N 02:39:22 10° ENE
Cosmos 841 Rocket 3.5 02:36:15 10° SSW 02:41:25 89° WNW 02:46:37 10° NNE
Cosmos 1937 Rocket 4.0 02:36:34 10° NW 02:41:33 41° WSW 02:46:30 10° S
Cosmos 1437 2.5 02:39:22 10° NNW 02:42:07 52° W 02:44:50 10° S
Exosat Rocket 4.4 02:36:41 10° SW 02:43:19 50° WNW 02:48:30 10° NNE
SL-08 R/B 4.0 02:39:07 10° SSE 02:43:39 58° ENE 02:48:18 10° N
ATLAS 5 CENTAUR R/B 3.2 02:41:10 10° S 02:44:23 24° ESE 02:47:54 10° ENE
FALCON 9 DEB 3.4 02:46:23 10° WNW 02:49:47 72° NNE 02:53:10 10° ESE
Meteor 1-28 Rocket 3.8 02:47:53 10° SSW 02:51:26 38° W 02:55:01 10° NNW
Cosmos 1570 Rocket 4.2 02:46:26 10° SSW 02:51:40 79° ESE 02:56:55 10° NNE
IRIDIUM 114 4.4 02:47:24 10° N 02:52:40 90° WSW 02:57:53 10° S
Cosmos 1782 3.4 02:50:10 10° N 02:54:08 61° ENE 02:58:05 10° SSE
CZ-4C R/B 3.2 02:51:19 10° S 02:54:44 53° WSW 02:58:09 10° NNW
Cosmos 540 Rocket 3.7 02:51:26 10° SW 02:56:28 60° WNW 03:01:32 10° NNE
IDEFIX/ARIANE 42P 2.6 02:51:55 10° NNE 02:57:12 82° WNW 03:02:26 10° SSW
Cosmos 1814 Rocket 4.1 02:53:53 10° SSW 02:59:08 89° ESE 03:04:21 10° NNE
Cosmos 2208 Rocket 4.3 02:53:45 10° SSW 02:59:08 75° ESE 03:04:36 10° NNE
Cosmos 1933 3.4 02:56:19 10° NNW 03:00:22 67° W 03:04:25 10° S
IRIDIUM 103 4.4 02:56:35 10° N 03:01:50 77° W 03:07:02 10° S
